GW3740 Weather Reports


time (UTC)temp
F
wind
direction
speed
knots
gust
knots
rain 1hr
in
rain 24hr
in
rain mn
in
humidity
%
barometer
mb
20260506051022 54 268 0.0 1.7 0.00 0.01 0.01 51 1014.5
20260506050522 54 273 0.0 1.7 0.00 0.01 0.01 51 1014.4
20260506045020 55 278 0.0 7.0 0.00 0.01 0.01 50 1014.0
20260506044518 55 250 0.0 4.3 0.00 0.01 0.01 50 1013.8
20260506044017 55 219 0.0 4.3 0.00 0.01 0.01 50 1013.8
20260506043517 55 213 0.0 4.3 0.00 0.01 0.01 50 1013.6
20260506043017 55 227 0.0 4.3 0.00 0.01 0.01 50 1013.6
20260506042516 55 256 0.0 7.0 0.00 0.01 0.01 49 1013.6
20260506042016 55 201 0.0 7.0 0.00 0.01 0.01 49 1013.5
20260506041516 55 211 0.0 4.3 0.00 0.01 0.01 49 1013.4
20260506041014 56 244 0.0 4.3 0.00 0.01 0.01 48 1013.3
20260506040514 56 238 0.0 4.3 0.00 0.01 0.01 48 1013.2
20260506040018 56 212 0.0 4.3 0.00 0.01 0.01 48 1013.2
20260506035514 56 223 0.0 5.2 0.00 0.01 0.01 48 1013.1
20260506035014 56 186 0.0 4.3 0.00 0.01 0.01 47 1013.0
20260506034514 56 204 0.0 1.7 0.00 0.01 0.01 47 1013.0
20260506034014 56 261 0.0 4.3 0.00 0.01 0.01 46 1013.0
20260506033513 56 225 0.0 4.3 0.00 0.01 0.01 45 1012.9
20260506033013 57 226 0.0 2.6 0.00 0.01 0.01 44 1012.9
20260506032513 57 226 0.0 4.3 0.00 0.01 0.01 43 1012.8
20260506032013 57 220 0.0 5.2 0.00 0.01 0.01 42 1012.7
20260506031513 57 246 0.0 5.2 0.00 0.01 0.01 42 1012.6
20260506031013 57 227 0.0 6.1 0.00 0.01 0.01 41 1012.6
20260506030513 57 220 0.0 6.1 0.00 0.01 0.01 41 1012.6
20260506030012 58 234 0.0 3.5 0.00 0.01 0.01 41 1012.5
20260506025513 58 254 0.0 4.3 0.00 0.01 0.01 41 1012.4
20260506025013 58 220 0.0 5.2 0.00 0.01 0.01 41 1012.3
20260506024512 58 232 0.9 5.2 0.00 0.01 0.01 41 1012.3
20260506024012 58 263 0.0 4.3 0.00 0.01 0.01 41 1012.2
20260506023511 58 221 0.0 4.3 0.00 0.01 0.01 41 1012.0
20260506023011 59 250 0.0 4.3 0.00 0.01 0.01 41 1012.0
20260506022511 59 249 0.0 6.1 0.00 0.01 0.01 41 1011.9
20260506022011 59 228 0.9 6.1 0.00 0.01 0.01 41 1011.9
20260506021511 59 204 0.0 7.0 0.00 0.01 0.01 41 1011.7
20260506021010 59 223 0.0 4.3 0.00 0.01 0.01 41 1011.7
20260506020512 59 223 0.0 6.1 0.00 0.01 0.01 40 1011.5
20260506020018 59 242 0.0 6.1 0.00 0.01 0.01 40 1011.3
20260506015511 60 228 0.0 7.0 0.00 0.01 0.01 40 1011.4
20260506015013 60 233 0.9 7.0 0.00 0.01 0.01 39 1011.2
20260506014510 60 259 0.0 6.1 0.00 0.01 0.01 39 1011.3
20260506014010 60 210 0.0 8.7 0.00 0.01 0.01 38 1011.1
20260506013514 60 223 0.9 8.7 0.00 0.01 0.01 38 1011.1
20260506013010 61 221 0.0 7.8 0.00 0.01 0.01 38 1011.0
20260506012510 61 238 0.0 11.3 0.00 0.01 0.01 37 1011.0
20260506012009 61 280 0.0 11.3 0.00 0.01 0.01 36 1011.0
20260506011509 61 257 0.9 10.4 0.00 0.01 0.01 36 1010.9
20260506011010 62 215 0.0 6.1 0.00 0.01 0.01 36 1010.8
20260506010509 62 181 0.9 6.1 0.00 0.01 0.01 35 1010.6
20260506010009 62 219 0.0 6.1 0.00 0.01 0.01 35 1010.7
20260506005516 63 215 0.0 2.6 0.00 0.01 0.01 36 1010.6
20260506005008 63 225 0.0 5.2 0.00 0.01 0.01 36 1010.5
20260506004520 62 175 0.0 7.0 0.00 0.01 0.01 37 1010.4
20260506004008 62 219 1.7 9.6 0.00 0.01 0.01 36 1010.5
20260506003508 63 191 0.9 9.6 0.00 0.01 0.01 35 1010.3
20260506003008 63 169 0.0 6.1 0.00 0.01 0.01 35 1010.5
20260506002509 63 253 0.0 3.5 0.00 0.01 0.01 35 1010.5
20260506002008 63 232 0.0 6.1 0.00 0.01 0.01 34 1010.5
20260506001508 64 175 0.9 6.1 0.00 0.01 0.01 33 1010.4
20260506001008 64 208 0.0 6.1 0.00 0.01 0.01 32 1010.4
20260506000507 64 228 0.0 3.5 0.00 0.01 0.01 33 1010.4
20260506000008 63 224 0.0 5.2 0.00 0.01 0.01 34 1010.4
20260505235507 63 219 0.9 5.2 0.00 0.01 0.01 35 1010.5
20260505235007 63 204 0.0 6.1 0.00 0.01 0.01 35 1010.4
20260505234509 63 190 0.9 6.1 0.00 0.01 0.01 35 1010.4
20260505234006 64 182 0.9 7.8 0.00 0.01 0.01 35 1010.3
20260505233506 64 167 0.9 7.8 0.00 0.01 0.01 34 1010.1
20260505233006 64 163 1.7 6.1 0.00 0.01 0.01 35 1010.2
20260505232506 63 231 0.0 7.8 0.00 0.01 0.01 35 1010.0
20260505232006 63 195 0.9 7.8 0.00 0.01 0.01 35 1010.2
20260505231508 64 155 0.9 9.6 0.00 0.01 0.01 34 1010.2
20260505231006 63 202 0.9 9.6 0.00 0.01 0.01 36 1010.1
20260505230506 63 199 0.0 8.7 0.00 0.01 0.01 34 1010.4
20260505230015 64 228 0.9 12.2 0.00 0.01 0.01 33 1010.1
20260505225507 64 180 2.6 7.8 0.00 0.01 0.01 32 1010.1
20260505225006 64 186 0.9 8.7 0.00 0.01 0.01 32 1010.0
20260505224506 64 196 0.9 8.7 0.00 0.01 0.01 32 1010.1
20260505224004 64 182 2.6 12.2 0.00 0.01 0.01 32 1010.2
20260505223504 65 202 1.7 12.2 0.00 0.01 0.01 32 1010.1
20260505223005 64 196 0.0 7.0 0.00 0.01 0.01 33 1010.2
20260505222504 63 163 0.9 6.1 0.00 0.01 0.01 33 1010.3
20260505222005 63 220 1.7 7.0 0.00 0.01 0.01 34 1010.5
20260505221504 63 181 0.9 9.6 0.00 0.01 0.01 36 1010.4
20260505221004 63 193 0.9 9.6 0.00 0.01 0.01 36 1010.5
20260505220503 63 157 1.7 9.6 0.00 0.01 0.01 36 1010.5
20260505220004 63 159 1.7 6.1 0.00 0.01 0.01 36 1010.4
20260505215505 63 238 0.0 10.4 0.00 0.01 0.01 37 1010.7
20260505215004 63 149 2.6 10.4 0.00 0.01 0.01 36 1010.6
20260505214613 64 209 1.7 7.8 0.00 0.01 0.01 36 1010.8
20260505214003 64 233 1.7 8.7 0.00 0.01 0.01 36 1010.8
20260505213503 64 199 0.9 8.7 0.00 0.01 0.01 36 1010.9
20260505213004 64 223 0.0 9.6 0.00 0.01 0.01 36 1010.8
20260505212503 65 168 0.0 9.6 0.00 0.01 0.01 34 1010.8
20260505212002 66 187 1.7 8.7 0.00 0.01 0.01 34 1011.1
20260505211502 66 217 3.5 9.6 0.00 0.01 0.01 34 1011.2
20260505211002 66 206 2.6 8.7 0.00 0.01 0.01 34 1011.0
20260505210501 66 257 2.6 9.6 0.00 0.01 0.01 34 1011.4
20260505210001 66 242 0.9 13.0 0.00 0.01 0.01 34 1011.2
20260505205503 66 210 2.6 13.0 0.00 0.01 0.01 32 1011.5
20260505205001 65 223 0.0 6.1 0.00 0.01 0.01 36 1011.3
20260505204501 65 159 0.9 8.7 0.00 0.01 0.01 37 1011.1
20260505204100 66 246 0.9 8.7 0.00 0.01 0.01 37 1011.3
20260505203601 66 184 0.9 8.7 0.00 0.01 0.01 38 1011.4
20260505203059 65 220 0.9 8.7 0.00 0.01 0.01 38 1011.2
20260505202601 64 202 1.7 11.3 0.00 0.01 0.01 42 1011.4
20260505202058 64 209 0.9 11.3 0.00 0.01 0.01 41 1011.4
20260505201557 64 182 1.7 10.4 0.00 0.01 0.01 42 1011.4
20260505201056 64 198 0.0 10.4 0.00 0.01 0.01 43 1011.4
20260505200556 63 198 0.0 5.2 0.00 0.01 0.01 46 1011.4
20260505200055 63 192 0.0 8.7 0.00 0.01 0.01 46 1011.5
20260505195555 63 198 0.9 9.6 0.00 0.01 0.01 46 1011.4
20260505195055 64 171 1.7 8.7 0.00 0.01 0.01 47 1011.4
20260505194556 63 227 0.0 8.7 0.00 0.01 0.01 47 1011.4
20260505194054 64 192 2.6 7.8 0.00 0.01 0.01 47 1011.5
20260505193553 64 200 0.9 7.8 0.00 0.01 0.01 47 1011.8
20260505193052 63 235 1.7 7.0 0.00 0.01 0.01 48 1011.9
20260505192551 63 206 0.9 4.3 0.00 0.01 0.01 48 1011.8
20260505192051 63 180 0.0 7.0 0.00 0.01 0.01 50 1011.7
20260505191555 63 209 1.7 12.2 0.00 0.01 0.01 48 1011.8
20260505191053 63 140 1.7 12.2 0.00 0.01 0.01 48 1011.7
20260505190554 63 226 1.7 9.6 0.00 0.01 0.01 48 1012.0
20260505190050 63 204 0.0 8.7 0.00 0.01 0.01 50 1012.1
20260505185550 62 202 2.6 8.7 0.00 0.01 0.01 50 1012.0
20260505185050 62 220 1.7 8.7 0.00 0.01 0.01 51 1012.0
20260505184549 62 225 1.7 10.4 0.00 0.01 0.01 49 1012.0
20260505184049 62 189 3.5 10.4 0.00 0.01 0.01 49 1012.1
20260505183548 62 206 0.0 7.8 0.00 0.01 0.01 50 1012.0
20260505183048 62 150 0.9 6.1 0.00 0.01 0.01 49 1011.7
20260505182548 63 151 0.9 7.0 0.00 0.01 0.01 48 1011.9
20260505182047 62 204 0.9 7.0 0.00 0.01 0.01 50 1012.1
20260505181606 62 188 0.0 6.1 0.00 0.01 0.01 51 1011.8
20260505181045 61 186 0.9 6.1 0.00 0.01 0.01 52 1012.0
20260505180543 61 160 0.9 8.7 0.00 0.01 0.01 53 1012.0
20260505180054 60 169 0.9 8.7 0.00 0.01 0.01 54 1011.9
20260505175541 60 178 1.7 5.2 0.00 0.01 0.01 54 1012.1
20260505175039 59 209 0.0 6.1 0.00 0.01 0.01 58 1012.1
20260505174543 58 232 0.9 6.1 0.00 0.01 0.01 58 1012.2
20260505174039 58 197 0.0 5.2 0.00 0.01 0.01 58 1012.1
20260505173538 58 249 0.9 6.1 0.00 0.01 0.01 58 1012.0
20260505173038 58 275 0.0 6.1 0.00 0.01 0.01 58 1012.1
20260505172538 58 204 0.9 6.1 0.00 0.01 0.01 57 1012.1
20260505172038 58 219 0.0 7.8 0.00 0.01 0.01 57 1011.8
20260505171542 58 192 0.9 12.2 0.00 0.01 0.01 57 1011.7
20260505171038 58 209 0.0 11.3 0.00 0.01 0.01 56 1011.8
20260505170538 58 191 2.6 11.3 0.00 0.01 0.01 56 1011.9
20260505170038 58 211 1.7 8.7 0.00 0.01 0.01 56 1011.9
20260505165541 58 214 0.9 6.1 0.00 0.01 0.01 56 1011.9
20260505165037 58 178 0.0 6.1 0.00 0.01 0.01 56 1011.9
20260505164537 58 217 1.7 11.3 0.00 0.01 0.01 56 1012.0
20260505164036 58 277 0.0 7.0 0.00 0.01 0.01 57 1011.9
20260505163535 58 215 0.9 7.0 0.00 0.01 0.01 59 1011.9
20260505163034 57 215 0.0 7.0 0.00 0.01 0.01 59 1011.8
20260505162534 57 217 0.0 7.0 0.00 0.01 0.01 59 1011.8
20260505162033 57 196 2.6 7.8 0.00 0.01 0.01 59 1011.8
20260505161533 57 210 0.0 6.1 0.00 0.01 0.01 60 1011.7
20260505161032 57 208 0.9 6.1 0.00 0.01 0.01 60 1011.7
20260505160532 56 223 0.9 5.2 0.00 0.01 0.01 64 1011.8
20260505153036 55 161 0.0 12.2 0.00 0.01 0.01 68 1011.5
20260505152528 55 148 0.9 12.2 0.00 0.01 0.01 67 1011.5
20260505152026 55 215 0.9 6.1 0.00 0.01 0.01 68 1011.4
20260505151526 55 257 1.7 6.1 0.00 0.01 0.01 68 1011.4
20260505151026 55 192 0.0 6.1 0.00 0.01 0.01 68 1011.2
20260505150526 55 163 0.9 7.8 0.00 0.01 0.01 69 1011.2
20260505140520 51 175 0.0 1.7 0.01 0.01 0.01 76 1010.8
20260505125007 56 211 0.0 0.9 0.00 0.00 0.00 59 1010.0
20260505124508 56 230 0.0 0.9 0.00 0.00 0.00 60 1010.0
20260505124007 56 163 0.0 1.7 0.00 0.00 0.00 61 1009.9
20260505123508 56 154 0.0 1.7 0.00 0.00 0.00 61 1009.8
20260505123005 56 154 0.0 3.5 0.00 0.00 0.00 62 1009.7
20260505122504 56 232 0.0 3.5 0.00 0.00 0.00 62 1009.7
20260505122004 56 157 0.0 3.5 0.00 0.00 0.00 62 1010.0
20260505121504 56 153 0.9 5.2 0.00 0.00 0.00 62 1010.2
20260505121004 56 216 0.0 5.2 0.00 0.00 0.00 63 1010.1
20260505120502 56 210 0.9 5.2 0.00 0.00 0.00 61 1010.3
20260505120003 57 234 0.0 4.3 0.00 0.00 0.00 53 1010.0
20260505115502 56 199 0.0 1.7 0.00 0.00 0.00 58 1009.9
20260505115002 56 200 0.0 2.6 0.00 0.00 0.00 58 1010.0
20260505114502 56 217 0.0 2.6 0.00 0.00 0.00 56 1010.3
20260505114002 57 207 0.0 7.0 0.00 0.00 0.00 57 1010.2
20260505113603 57 216 0.0 7.0 0.00 0.00 0.00 56 1010.7
20260505113101 57 165 0.0 6.1 0.00 0.00 0.00 55 1010.6
20260505112559 56 213 0.0 6.1 0.00 0.00 0.00 57 1010.6
20260505112059 56 168 0.0 1.7 0.00 0.00 0.00 59 1010.8
20260505111603 56 229 0.0 3.5 0.00 0.00 0.00 59 1010.8
20260505111059 56 213 0.0 5.2 0.00 0.00 0.00 60 1010.8
20260505110558 56 232 0.0 1.7 0.00 0.00 0.00 60 1010.9
20260505110113 56 229 0.0 3.5 0.00 0.00 0.00 60 1011.0
20260505102055 57 217 0.0 2.6 0.00 0.00 0.00 52 1011.3
20260505101556 56 206 0.0 0.9 0.00 0.00 0.00 46 1011.6
20260505101051 56 197 0.0 0.9 0.00 0.00 0.00 46 1011.6
20260505100551 56 28 0.0 0.0 0.00 0.00 0.00 45 1011.6
20260505100050 56 29 0.0 0.0 0.00 0.00 0.00 45 1011.6
20260505095549 56 29 0.0 0.0 0.00 0.00 0.00 43 1011.8
20260505095049 56 29 0.0 0.0 0.00 0.00 0.00 43 1011.8
20260505094547 57 29 0.0 0.0 0.00 0.00 0.00 42 1011.9
20260505094047 57 29 0.0 0.0 0.00 0.00 0.00 41 1011.9
20260505093545 57 10 0.0 0.0 0.00 0.00 0.00 41 1012.1
20260505093048 57 10 0.0 0.0 0.00 0.00 0.00 40 1012.1
20260505092543 57 10 0.0 0.0 0.00 0.00 0.00 39 1012.4
20260505092042 58 10 0.0 0.0 0.00 0.00 0.00 39 1012.3
20260505091552 58 10 0.0 0.0 0.00 0.00 0.00 38 1012.3
20260505091041 58 10 0.0 2.6 0.00 0.00 0.00 35 1012.3
20260505090541 58 10 0.0 2.6 0.00 0.00 0.00 35 1012.4
20260505090041 58 212 0.0 0.0 0.00 0.00 0.00 33 1012.6
20260505085542 58 207 0.0 0.0 0.00 0.00 0.00 33 1012.4
20260505085042 58 207 0.0 0.9 0.00 0.00 0.00 33 1012.4
20260505084544 58 207 0.0 0.9 0.00 0.00 0.00 31 1012.5
20260505084039 58 231 0.0 0.0 0.00 0.00 0.00 34 1012.7
20260505083540 58 231 0.0 0.0 0.00 0.00 0.00 34 1012.8
20260505083051 58 231 0.0 0.0 0.00 0.00 0.00 34 1012.8
20260505082538 58 231 0.0 0.0 0.00 0.00 0.00 33 1012.8
20260505082037 58 231 0.0 0.0 0.00 0.00 0.00 35 1012.8
20260505081537 58 231 0.0 0.9 0.00 0.00 0.00 34 1012.9
20260505081037 58 231 0.0 0.9 0.00 0.00 0.00 36 1013.0
20260505080536 58 213 0.0 2.6 0.00 0.00 0.00 36 1012.9
20260505080036 59 249 0.0 2.6 0.00 0.00 0.00 35 1012.8
20260505075538 59 225 0.0 0.9 0.00 0.00 0.00 34 1012.5
20260505075034 59 224 0.0 2.6 0.00 0.00 0.00 34 1012.6
20260505074535 59 248 0.0 4.3 0.00 0.00 0.00 34 1012.6
20260505074034 59 227 0.0 5.2 0.00 0.00 0.00 36 1012.9
20260505073533 59 207 0.0 5.2 0.00 0.00 0.00 37 1013.1
20260505073032 59 255 0.0 8.7 0.00 0.00 0.00 37 1013.1
20260505072532 59 202 0.0 8.7 0.00 0.00 0.00 37 1013.2
20260505072030 59 355 0.0 3.5 0.00 0.00 0.00 37 1013.3
20260505071530 59 236 0.0 2.6 0.00 0.00 0.00 36 1012.8
20260505071029 59 206 0.0 2.6 0.00 0.00 0.00 36 1013.2
20260505070533 60 202 0.0 0.9 0.00 0.00 0.00 37 1013.3
20260505070030 60 201 0.0 5.2 0.00 0.00 0.00 36 1013.1
20260505065528 60 229 0.0 5.2 0.00 0.00 0.00 36 1013.0
20260505065027 60 196 0.0 5.2 0.00 0.00 0.00 37 1013.2
20260505064533 60 188 0.0 2.6 0.00 0.00 0.00 36 1013.2
20260505064027 60 246 0.0 5.2 0.00 0.00 0.00 36 1013.0
20260505063527 60 209 0.0 3.5 0.00 0.00 0.00 37 1013.0
20260505063027 60 215 0.0 3.5 0.00 0.00 0.00 36 1012.9
20260505062528 60 242 0.0 7.0 0.00 0.00 0.00 37 1012.9
20260505062026 60 209 0.9 7.0 0.00 0.00 0.00 36 1012.8
20260505061527 60 209 0.0 4.3 0.00 0.00 0.00 36 1013.1
20260505061026 60 245 0.0 5.2 0.00 0.00 0.00 36 1013.3
20260505060526 61 236 0.0 5.2 0.00 0.00 0.00 35 1013.4
20260505060026 61 238 0.0 2.6 0.00 0.00 0.00 35 1013.3